O3B FM13 (43234 NORAD) Tracking and Keplerian Element Data.

This shows tracking and keplerian element data for the satellite.

Feedback or suggestion? Click here.

NameO3B FM13
Epoch Orbit37
Epoch Day76.05620902
Epoch Year2018
Argument of Perigee164.3031
Mean Anonmoly256.3346
Mean Motion5.12318182
Decay Rate-2E-07
L11 43234U 18024D 18076.05620902 -.00000020 00000-0 00000-0 0 9990
L22 43234 0.0332 299.3943 0003091 164.3031 256.3346 5.12318182 376

Live tracking and technical data element details for O3B FM13 (NORAD 43234). O3B FM13 can be tracked NOW for your location showing map with azimuth and elevation plus other details from your city location.

Tracking and technical details about the satellite: track the satellite on the map from your city or location and see movement details for azimuth, elevation, latitude, longitude, range, height, and movement on the map or in text.

Es'hailsat 2 (coming in 2018)

IsCatalogInMostPopularTable: catalog: 43234, numindb: 2
Update: records affected: 1

GetName: 43234 O3B FM13

Hit Count: updated at: Thu, 22 Mar 2018 13:48:24 GMT